{"data":{"norad_id":53430,"epoch":"2026-05-25T04:47:10.795200Z","epoch_age_seconds":54348,"freshness":"FRESH","line1":"1 53430U 22097AU  26145.19943050  .00000340  00000+0  39451-4 0  9996","line2":"2 53430  53.2133 120.6908 0001183  72.4480 287.6641 15.08839998210319","mean_motion":15.08839998,"eccentricity":0.0001183,"inclination_deg":53.2133,"raan_deg":120.6908,"arg_perigee_deg":72.448,"mean_anomaly_deg":287.6641,"bstar":3.9451e-5,"rev_number":21031,"period_min":95.43755480427,"perigee_km":538.92500982656,"apogee_km":540.56178032804,"semimajor_km":6917.8803950773,"source":"CELESTRAK","updated_at":"2026-05-25T13:38:17.405671Z"}}